Weather History for Williams, AZ

Change the Weather History Date:

Thursday, February 7, 2013

  Actual Average (KFLG) Record (KFLG)
Temperature  
Mean Temperature 36 °F 31 °F  
Max Temperature 48 °F 44 °F 66 °F (1963)
Min Temperature 23 °F 18 °F -18 °F (1903)
Degree Days  
Heating Degree Days 30 34  
Month to date heating degree days 238  
Since 1 July heating degree days 4154  
Cooling Degree Days 0 0  
Month to date cooling degree days 0  
Year to date cooling degree days 0  
Moisture  
Dew Point 23 °F    
Average Humidity 64    
Maximum Humidity 93    
Minimum Humidity 32    
Precipitation  
Precipitation 0.00 in 0.08 in 1.24 in (1901)
Month to date precipitation 0.50  
Year to date precipitation 2.55  
Snow  
Snow 0.00 in 0.80 in 12.40 in (1901)
Month to date snowfall 5.5  
Since 1 July snowfall 57.8  
Snow Depth -    
Sea Level Pressure  
Sea Level Pressure 30.17 in    
Wind  
Wind Speed 7 mph (SSE)    
Max Wind Speed 12 mph    
Max Gust Speed 16 mph    
Visibility 10 miles    
Events      
T = Trace of Precipitation, MM = Missing Value Source: NWS Daily Summary

Daily Weather History Graph

Daily Weather History Graph

Search for Another Location

Airport:

Trip Planner

Search our weather history database for the weather conditions in past years. The results will help you decide how hot, cold, wet, or windy it might be!

Date:

Astronomy

Feb. 07, 2013 Rise Set
Actual Time 7:22 AM MST 6:03 PM MST
Civil Twilight 6:56 AM MST 6:29 PM MST
Nautical Twilight 6:26 AM MST 6:59 PM MST
Astronomical Twilight 5:56 AM MST 7:29 PM MST
Moon 5:02 AM MST (2/7) 3:35 PM MST (2/7)
Length of Visible Light 11h 33m
Length of Day
10h 40m
Waning Crescent, 8% of the Moon is Illuminated
Feb 7
Waning Crescent
Feb 10
New
Feb 17
First Quarter
Feb 25
Full
Mar 4
Last Quarter

Hourly Weather History & Observations

Time (MST) Temp. Windchill Dew Point Humidity Pressure Visibility Wind Dir Wind Speed Gust Speed Precip Events Conditions
12:15 AM 26.6 °F 20.0 °F 23.0 °F 86% 30.19 in 10.0 mi SSE 5.8 mph - N/A   Clear
12:35 AM 26.6 °F 20.0 °F 23.0 °F 86% 30.19 in 10.0 mi SSE 5.8 mph - N/A   Clear
12:55 AM 26.6 °F 19.1 °F 23.0 °F 86% 30.19 in 10.0 mi SSE 6.9 mph - N/A   Clear
1:15 AM 26.6 °F 19.1 °F 23.0 °F 86% 30.18 in 10.0 mi SSE 6.9 mph - N/A   Clear
1:35 AM 24.8 °F 16.9 °F 23.0 °F 93% 30.19 in 10.0 mi SSE 6.9 mph - N/A   Clear
1:55 AM 24.8 °F 16.1 °F 23.0 °F 93% 30.19 in 10.0 mi SSE 8.1 mph - N/A   Clear
2:15 AM 26.6 °F 19.1 °F 23.0 °F 86% 30.19 in 10.0 mi SSE 6.9 mph - N/A   Clear
2:35 AM 24.8 °F 16.9 °F 23.0 °F 93% 30.19 in 10.0 mi SSE 6.9 mph - N/A   Clear
2:55 AM 24.8 °F 16.1 °F 23.0 °F 93% 30.19 in 10.0 mi SSE 8.1 mph - N/A   Clear
3:15 AM 24.8 °F 15.3 °F 23.0 °F 93% 30.19 in 10.0 mi SSE 9.2 mph - N/A   Clear
3:35 AM 24.8 °F 15.3 °F 21.2 °F 86% 30.19 in 10.0 mi SSE 9.2 mph - N/A   Clear
3:55 AM 24.8 °F 15.3 °F 21.2 °F 86% 30.19 in 10.0 mi SSE 9.2 mph - N/A   Clear
4:15 AM 24.8 °F 15.3 °F 21.2 °F 86% 30.19 in 10.0 mi SSE 9.2 mph - N/A   Clear
4:35 AM 24.8 °F 15.3 °F 21.2 °F 86% 30.19 in 10.0 mi SSE 9.2 mph - N/A   Clear
4:55 AM 24.8 °F 15.3 °F 21.2 °F 86% 30.19 in 10.0 mi SSE 9.2 mph - N/A   Clear
5:15 AM 23.0 °F 13.9 °F 21.2 °F 93% 30.19 in 10.0 mi SSE 8.1 mph - N/A   Clear
5:35 AM 24.8 °F 15.3 °F 23.0 °F 93% 30.19 in 10.0 mi SSE 9.2 mph - N/A   Clear
5:55 AM 24.8 °F 16.1 °F 23.0 °F 93% 30.19 in 10.0 mi SSE 8.1 mph - N/A   Clear
6:15 AM 26.6 °F 16.8 °F 23.0 °F 86% 30.19 in 10.0 mi SSE 10.4 mph - N/A   Clear
6:35 AM 26.6 °F 19.1 °F 23.0 °F 86% 30.20 in 10.0 mi SSE 6.9 mph - N/A   Clear
6:55 AM 24.8 °F 15.3 °F 23.0 °F 93% 30.20 in 10.0 mi SSE 9.2 mph - N/A   Clear
7:15 AM 26.6 °F 17.5 °F 23.0 °F 86% 30.21 in 10.0 mi SSE 9.2 mph - N/A   Clear
7:35 AM 24.8 °F 15.3 °F 21.2 °F 86% 30.21 in 10.0 mi SSE 9.2 mph - N/A   Clear
7:55 AM 26.6 °F 16.8 °F 23.0 °F 86% 30.22 in 10.0 mi SSE 10.4 mph - N/A   Clear
8:15 AM 28.4 °F 19.7 °F 23.0 °F 80% 30.22 in 10.0 mi SSE 9.2 mph - N/A   Clear
8:35 AM 32.0 °F 24.2 °F 24.8 °F 75% 30.23 in 10.0 mi SSE 9.2 mph - N/A   Clear
8:55 AM 32.0 °F 24.8 °F 24.8 °F 75% 30.23 in 10.0 mi SSE 8.1 mph - N/A   Clear
9:15 AM 35.6 °F 29.9 °F 26.6 °F 70% 30.23 in 10.0 mi SSE 6.9 mph - N/A   Clear
9:35 AM 39.2 °F 35.9 °F 26.6 °F 61% 30.24 in 10.0 mi SSE 4.6 mph - N/A   Clear
9:55 AM 41.0 °F 38.0 °F 26.6 °F 57% 30.24 in 10.0 mi SSE 4.6 mph - N/A   Clear
10:15 AM 42.8 °F 40.1 °F 21.2 °F 42% 30.24 in 10.0 mi ESE 4.6 mph - N/A   Clear
10:35 AM 44.6 °F 43.1 °F 23.0 °F 43% 30.24 in 10.0 mi SSE 3.5 mph - N/A   Clear
10:55 AM 44.6 °F 42.2 °F 19.4 °F 37% 30.24 in 10.0 mi SW 4.6 mph - N/A   Clear
11:15 AM 44.6 °F - 19.4 °F 37% 30.23 in 10.0 mi Calm Calm - N/A   Clear
11:35 AM 46.4 °F 44.3 °F 21.2 °F 37% 30.23 in 10.0 mi WSW 4.6 mph - N/A   Clear
11:55 AM 46.4 °F 41.5 °F 23.0 °F 40% 30.22 in 10.0 mi SW 10.4 mph - N/A   Clear
12:15 PM 46.4 °F 42.9 °F 23.0 °F 40% 30.22 in 10.0 mi South 6.9 mph - N/A   Clear
12:35 PM 46.4 °F 45.2 °F 23.0 °F 40% 30.20 in 10.0 mi East 3.5 mph - N/A   Clear
12:55 PM 48.2 °F - 23.0 °F 37% 30.19 in 10.0 mi South 9.2 mph - N/A   Clear
1:15 PM 48.2 °F - 21.2 °F 34% 30.18 in 10.0 mi South 4.6 mph - N/A   Clear
1:35 PM 48.2 °F - 21.2 °F 34% 30.17 in 10.0 mi SSW 3.5 mph - N/A   Clear
1:55 PM 48.2 °F - 19.4 °F 32% 30.16 in 10.0 mi South 3.5 mph - N/A   Clear
2:15 PM 48.2 °F - 23.0 °F 37% 30.15 in 10.0 mi SE 6.9 mph - N/A   Clear
2:35 PM 48.2 °F - 21.2 °F 34% 30.14 in 10.0 mi South 8.1 mph - N/A   Clear
2:55 PM 48.2 °F - 23.0 °F 37% 30.14 in 10.0 mi SSE 11.5 mph - N/A   Clear
3:15 PM 48.2 °F - 23.0 °F 37% 30.14 in 10.0 mi South 11.5 mph - N/A   Clear
3:35 PM 48.2 °F - 21.2 °F 34% 30.14 in 10.0 mi SSW 9.2 mph - N/A   Clear
3:55 PM 48.2 °F - 21.2 °F 34% 30.14 in 10.0 mi SSW 11.5 mph 16.1 mph N/A   Clear
4:35 PM 48.2 °F - 23.0 °F 37% 30.13 in 10.0 mi South 9.2 mph - N/A   Clear
4:55 PM 46.4 °F 41.5 °F 19.4 °F 34% 30.13 in 10.0 mi SSW 10.4 mph - N/A   Clear
5:15 PM 46.4 °F 42.9 °F 19.4 °F 34% 30.13 in 10.0 mi SSW 6.9 mph - N/A   Clear
5:35 PM 44.6 °F 39.2 °F 23.0 °F 43% 30.12 in 10.0 mi South 10.4 mph - N/A   Clear
5:55 PM 41.0 °F 36.4 °F 23.0 °F 49% 30.12 in 10.0 mi South 6.9 mph - N/A   Clear
6:15 PM 41.0 °F 36.4 °F 23.0 °F 49% 30.12 in 10.0 mi South 6.9 mph - N/A   Clear
6:35 PM 39.2 °F 34.2 °F 24.8 °F 56% 30.12 in 10.0 mi SSE 6.9 mph - N/A   Clear
6:55 PM 37.4 °F 32.8 °F 24.8 °F 60% 30.12 in 10.0 mi SSE 5.8 mph - N/A   Partly Cloudy
7:15 PM 37.4 °F 32.1 °F 24.8 °F 60% 30.11 in 10.0 mi SSE 6.9 mph - N/A   Clear
7:35 PM 37.4 °F 31.4 °F 24.8 °F 60% 30.12 in 10.0 mi SSE 8.1 mph - N/A   Partly Cloudy
7:55 PM 37.4 °F 32.1 °F 24.8 °F 60% 30.12 in 10.0 mi South 6.9 mph - N/A   Partly Cloudy
8:15 PM 39.2 °F 34.2 °F 26.6 °F 61% 30.12 in 10.0 mi SSW 6.9 mph - N/A   Mostly Cloudy
8:35 PM 39.2 °F 35.0 °F 26.6 °F 61% 30.12 in 10.0 mi SSW 5.8 mph - N/A   Mostly Cloudy
8:55 PM 37.4 °F 31.4 °F 26.6 °F 65% 30.11 in 10.0 mi SSW 8.1 mph - N/A   Scattered Clouds
9:15 PM 37.4 °F 31.4 °F 26.6 °F 65% 30.10 in 10.0 mi South 8.1 mph - N/A   Clear
9:35 PM 37.4 °F - 26.6 °F 65% 30.09 in 10.0 mi Calm Calm - N/A   Clear
9:55 PM 35.6 °F - 26.6 °F 70% 30.08 in 10.0 mi Calm Calm - N/A   Clear
10:15 PM 35.6 °F 29.2 °F 26.6 °F 70% 30.08 in 10.0 mi SSE 8.1 mph - N/A   Clear
10:35 PM 37.4 °F 29.8 °F 26.6 °F 65% 30.07 in 10.0 mi SSE 11.5 mph - N/A   Clear
10:55 PM 35.6 °F 28.0 °F 26.6 °F 70% 30.06 in 10.0 mi SSE 10.4 mph - N/A   Clear
11:35 PM 35.6 °F 28.0 °F 28.4 °F 75% 30.05 in 10.0 mi SE 10.4 mph - N/A   Clear
11:55 PM 35.6 °F 27.5 °F 28.4 °F 75% 30.05 in 10.0 mi SSE 11.5 mph - N/A   Clear